Location: Boise
(43.6140°N, 116.2030°W)
Time: 20:58:27
(UTC-07:00)

ISS - Visible Passes

Search period start: 22 November 2017 00:00
Search period end: 02 December 2017 00:00
Orbit: 402 x 407 km, 51.6° (Epoch: 23 November)

Date Brightness Start Highest point End Pass type
(mag) Time Alt. Az. Time Alt. Az. Time Alt. Az.
25 Nov -1.4 18:57:37 10° S 18:58:22 13° SSE 18:58:22 13° SSE visible
26 Nov -1.2 19:40:18 10° SW 19:41:12 17° SW 19:41:12 17° SW visible
27 Nov -3.0 18:48:16 10° SSW 18:51:16 35° SE 18:51:16 35° SE visible
28 Nov -2.0 17:56:39 10° S 17:59:07 20° SE 18:01:16 12° E visible
28 Nov -1.8 19:32:06 10° WSW 19:33:56 29° W 19:33:56 29° W visible
29 Nov -3.9 18:39:41 10° SW 18:42:58 82° SE 18:43:49 46° ENE visible
30 Nov -3.2 17:47:31 10° SW 17:50:38 44° SE 17:53:39 11° ENE visible
30 Nov -2.0 19:24:10 10° W 19:26:18 28° NW 19:26:18 28° NW visible
01 Dec -3.2 18:31:30 10° WSW 18:34:42 49° NNW 18:36:04 28° NE visible
